Location: Jesenik
(50.2330°N, 17.2000°E)
Time: 00:26:51
(UTC+02:00)

ISS - Pass Details

Date: 30 March 2019
Orbit: 408 x 410 km, 51.6° (Epoch: 18 April)

Event Time Altitude Azimuth Distance (km) Brightness Sun altitude
Rises 19:14:18 0° 272° (W) 2,337 1.8 -9.4°
Reaches altitude 10° 19:16:24 10° 276° (W) 1,476 0.5 -9.7°
Maximum altitude 19:19:41 66° 359° (N) 451 -3.5 -10.2°
Enters shadow 19:22:28 14° 81° (E) 1,267 -1.9 -10.6°
